Location: *
(58.7167°N, 26.1833°E)
Time: 02:04:25
(UTC+00:00)

RESURS DK-1 - Visible Passes

Search period start: 13 November 2019 00:00
Search period end: 23 November 2019 00:00
Orbit: 558 x 560 km, 69.9° (Epoch: 12 November)

Date Brightness Start Highest point End Pass type
(mag) Time Alt. Az. Time Alt. Az. Time Alt. Az.
13 Nov 5.2 01:38:06 14° NNE 01:38:06 14° NNE 01:39:00 10° NE visible
13 Nov 4.3 03:14:00 17° NNW 03:15:26 20° NNE 03:18:35 10° ENE visible
13 Nov 3.2 04:50:24 10° NW 04:54:25 45° NE 04:58:25 10° ESE visible
14 Nov 5.2 01:36:33 13° NNE 01:36:33 13° NNE 01:37:24 10° NE visible
14 Nov 4.3 03:12:26 18° N 03:13:53 22° NNE 03:17:09 10° ENE visible
14 Nov 3.0 04:48:41 10° NW 04:52:46 53° NE 04:56:50 10° ESE visible
15 Nov 5.3 01:35:00 13° NNE 01:35:00 13° NNE 01:35:50 10° NE visible
15 Nov 4.2 03:10:54 19° N 03:12:20 23° NNE 03:15:42 10° ENE visible
15 Nov 2.7 04:46:58 10° NW 04:51:07 63° NE 04:55:14 10° SE visible
16 Nov 5.3 01:33:29 13° NE 01:33:29 13° NE 01:34:18 10° NE visible
16 Nov 4.1 03:09:22 21° N 03:10:47 25° NNE 03:14:16 10° E visible
16 Nov 2.5 04:45:16 10° NW 04:49:26 75° NE 04:53:35 10° SE visible
17 Nov 5.3 01:31:58 13° NE 01:31:58 13° NE 01:32:48 10° NE visible
17 Nov 4.0 03:07:52 23° N 03:09:12 28° NNE 03:12:48 10° E visible
17 Nov 2.4 04:43:46 11° NW 04:47:45 90° NE 04:51:54 10° SE visible
18 Nov 5.4 01:30:29 13° NE 01:30:29 13° NE 01:31:18 10° NE visible
18 Nov 3.9 03:06:24 26° N 03:07:37 31° NNE 03:11:20 10° E visible
18 Nov 2.3 04:42:18 13° NW 04:46:03 75° SW 04:50:10 10° SSE visible
19 Nov 5.4 01:29:03 13° NE 01:29:03 13° NE 01:29:51 10° NE visible
19 Nov 3.7 03:04:57 30° N 03:06:01 35° NNE 03:09:50 10° E visible
19 Nov 2.4 04:40:51 14° NW 04:44:19 62° SW 04:48:24 10° SSE visible
20 Nov 5.4 01:27:38 13° NE 01:27:38 13° NE 01:28:23 10° ENE visible
20 Nov 3.4 03:03:33 35° N 03:04:23 39° NE 03:08:19 10° ESE visible
20 Nov 2.6 04:39:27 16° NW 04:42:35 50° WSW 04:46:35 10° SSE visible
21 Nov 5.5 01:26:16 13° ENE 01:26:16 13° ENE 01:26:56 10° ENE visible
21 Nov 3.2 03:02:11 42° NNE 03:02:46 45° NE 03:06:46 10° ESE visible
21 Nov 2.9 04:38:06 18° WNW 04:40:49 41° WSW 04:44:43 10° S visible
22 Nov 5.5 01:24:58 12° ENE 01:24:58 12° ENE 01:25:30 10° ENE visible
22 Nov 2.9 03:00:53 52° NNE 03:01:07 53° NE 03:05:11 10° ESE visible
22 Nov 3.2 04:36:48 20° WNW 04:39:02 33° WSW 04:42:46 10° S visible
